EWG543 EDDK-EDDS

Flight info

Callsign EWG543
Flight time 0h 37m
Altitude 23000
Route KUMIK1B KUMIK L603 BOMBI N850 KRH T128 BADSO BADSO2A
Aircraft A20N/M-SDE2E3FGHIRWXY/LB1

Departure

Time 2026-05-05 19:18
Airport Cologne Bonn Airport (EDDK)

Arrival

Time 2026-05-05 19:55
Airport Stuttgart Airport (EDDS)
Time Latitude Longitude Altitude Speed Heading
2026-05-05 18:56 50.88200 7.11905 233 ft 0 kts 216°
2026-05-05 19:04 50.88211 7.11917 236 ft 2 kts 214°
2026-05-05 19:05 50.88225 7.11931 236 ft 2 kts 210°
2026-05-05 19:05 50.88240 7.11942 236 ft 2 kts 189°
2026-05-05 19:05 50.88253 7.11936 236 ft 1 kts 128°
2026-05-05 19:05 50.88254 7.11933 236 ft 0 kts 127°
2026-05-05 19:07 50.88085 7.12351 235 ft 24 kts 123°
2026-05-05 19:08 50.87985 7.12521 234 ft 18 kts 137°
2026-05-05 19:08 50.87897 7.12613 236 ft 12 kts 178°
2026-05-05 19:08 50.87818 7.12633 234 ft 13 kts 149°
2026-05-05 19:08 50.87740 7.12739 236 ft 16 kts 138°
2026-05-05 19:09 50.87644 7.12878 236 ft 21 kts 136°
2026-05-05 19:09 50.87525 7.13051 235 ft 25 kts 137°
2026-05-05 19:09 50.87399 7.13235 236 ft 23 kts 137°
2026-05-05 19:09 50.87298 7.13378 238 ft 17 kts 139°
2026-05-05 19:10 50.87230 7.13479 240 ft 10 kts 137°
2026-05-05 19:10 50.87191 7.13536 241 ft 7 kts 137°
2026-05-05 19:10 50.87139 7.13612 242 ft 16 kts 137°
2026-05-05 19:10 50.87063 7.13723 245 ft 12 kts 138°
2026-05-05 19:11 50.87010 7.13799 246 ft 11 kts 137°
2026-05-05 19:11 50.86945 7.13895 247 ft 14 kts 137°
2026-05-05 19:11 50.86866 7.14011 249 ft 16 kts 137°
2026-05-05 19:11 50.86786 7.14121 253 ft 14 kts 140°
2026-05-05 19:12 50.86718 7.14167 257 ft 9 kts 154°
2026-05-05 19:12 50.86667 7.14235 260 ft 14 kts 138°
2026-05-05 19:12 50.86544 7.14414 261 ft 30 kts 137°
2026-05-05 19:12 50.86398 7.14624 267 ft 27 kts 137°
2026-05-05 19:13 50.86270 7.14813 272 ft 23 kts 139°
2026-05-05 19:13 50.86141 7.14998 274 ft 30 kts 138°
2026-05-05 19:13 50.85981 7.15227 280 ft 30 kts 137°
2026-05-05 19:13 50.85840 7.15432 287 ft 26 kts 137°
2026-05-05 19:14 50.85720 7.15601 297 ft 21 kts 136°
2026-05-05 19:14 50.85605 7.15773 300 ft 23 kts 136°
2026-05-05 19:14 50.85488 7.15938 301 ft 22 kts 137°
2026-05-05 19:14 50.85378 7.16104 307 ft 22 kts 130°
2026-05-05 19:15 50.85335 7.16283 311 ft 13 kts 89°
2026-05-05 19:15 50.85350 7.16375 312 ft 6 kts 62°
2026-05-05 19:15 50.85366 7.16414 314 ft 1 kts 54°
2026-05-05 19:15 50.85366 7.16415 314 ft 0 kts 54°
2026-05-05 19:16 50.85369 7.16421 314 ft 3 kts 53°
2026-05-05 19:16 50.85376 7.16435 314 ft 5 kts 49°
2026-05-05 19:17 50.85435 7.16500 317 ft 12 kts 23°
2026-05-05 19:17 50.85511 7.16520 316 ft 14 kts 351°
2026-05-05 19:17 50.85633 7.16404 311 ft 34 kts 318°
2026-05-05 19:17 50.85980 7.15904 300 ft 101 kts 317°
2026-05-05 19:18 50.86655 7.14919 332 ft 151 kts 317°
2026-05-05 19:18 50.87415 7.13798 891 ft 153 kts 319°
2026-05-05 19:18 50.88212 7.12660 1478 ft 161 kts 321°
2026-05-05 19:18 50.89159 7.11380 1873 ft 194 kts 324°
2026-05-05 19:19 50.90437 7.10531 2443 ft 206 kts
2026-05-05 19:19 50.91731 7.11369 3078 ft 208 kts 48°
2026-05-05 19:19 50.92779 7.12996 3778 ft 213 kts 36°
2026-05-05 19:19 50.93920 7.14503 4560 ft 221 kts 56°
2026-05-05 19:20 50.94397 7.15970 4955 ft 231 kts 67°
2026-05-05 19:20 50.95323 7.19272 5741 ft 258 kts 65°
2026-05-05 19:20 50.96104 7.21912 6474 ft 269 kts 65°
2026-05-05 19:20 50.96914 7.24576 7311 ft 274 kts 64°
2026-05-05 19:21 50.97762 7.27316 8206 ft 279 kts 64°
2026-05-05 19:21 50.98631 7.30099 9116 ft 283 kts 64°
2026-05-05 19:21 50.99515 7.32918 9991 ft 288 kts 64°
2026-05-05 19:21 51.00440 7.35860 10458 ft 308 kts 64°
2026-05-05 19:22 51.01378 7.39064 10785 ft 330 kts 70°
2026-05-05 19:22 51.01769 7.42742 11151 ft 349 kts 94°
2026-05-05 19:22 51.01294 7.46576 11789 ft 357 kts 107°
2026-05-05 19:22 51.00561 7.50380 12566 ft 363 kts 109°
2026-05-05 19:23 50.99787 7.54216 13364 ft 368 kts 108°
2026-05-05 19:23 50.99004 7.58109 14110 ft 372 kts 109°
2026-05-05 19:23 50.98229 7.61993 14844 ft 375 kts 109°
2026-05-05 19:23 50.97437 7.65980 15582 ft 379 kts 109°
2026-05-05 19:24 50.96511 7.69916 16314 ft 382 kts 117°
2026-05-05 19:24 50.95133 7.73553 17074 ft 384 kts 126°
2026-05-05 19:24 50.93524 7.76939 17813 ft 387 kts 130°
2026-05-05 19:24 50.91788 7.80187 18462 ft 391 kts 132°
2026-05-05 19:25 50.89959 7.83398 19091 ft 394 kts 133°
2026-05-05 19:25 50.88090 7.86600 19727 ft 396 kts 134°
2026-05-05 19:25 50.86208 7.89812 20361 ft 399 kts 134°
2026-05-05 19:25 50.84303 7.93080 20990 ft 402 kts 133°
2026-05-05 19:26 50.82424 7.96328 21597 ft 405 kts 133°
2026-05-05 19:26 50.80515 7.99646 22192 ft 408 kts 133°
2026-05-05 19:26 50.78603 8.02979 22668 ft 411 kts 133°
2026-05-05 19:26 50.76686 8.06325 22799 ft 411 kts 133°
2026-05-05 19:27 50.74763 8.09682 22804 ft 412 kts 133°
2026-05-05 19:27 50.72835 8.13043 22802 ft 413 kts 133°
2026-05-05 19:27 50.70907 8.16397 22801 ft 413 kts 133°
2026-05-05 19:27 50.69629 8.18618 22800 ft 413 kts 133°
2026-05-05 19:28 50.67065 8.23067 22802 ft 413 kts 133°
2026-05-05 19:28 50.65127 8.26422 22800 ft 413 kts 133°
2026-05-05 19:28 50.63196 8.29761 22804 ft 413 kts 133°
2026-05-05 19:28 50.61260 8.33104 22810 ft 413 kts 133°
2026-05-05 19:29 50.59321 8.36447 22811 ft 413 kts 133°
2026-05-05 19:29 50.57377 8.39797 22798 ft 414 kts 133°
2026-05-05 19:29 50.55433 8.43140 22807 ft 414 kts 133°
2026-05-05 19:29 50.53486 8.46485 22806 ft 414 kts 133°
2026-05-05 19:30 50.51540 8.49823 22809 ft 414 kts 133°
2026-05-05 19:30 50.49611 8.53128 22809 ft 414 kts 133°
2026-05-05 19:30 50.47666 8.56456 22806 ft 414 kts 133°
2026-05-05 19:30 50.45579 8.59559 22808 ft 413 kts 142°
2026-05-05 19:31 50.43160 8.62002 22810 ft 413 kts 153°
2026-05-05 19:31 50.40508 8.63764 22810 ft 413 kts 159°
2026-05-05 19:31 50.37792 8.65240 22809 ft 414 kts 161°
2026-05-05 19:31 50.35039 8.66559 22808 ft 414 kts 163°
2026-05-05 19:32 50.32268 8.67809 22816 ft 414 kts 163°
2026-05-05 19:32 50.29492 8.69043 22807 ft 414 kts 163°
2026-05-05 19:32 50.26718 8.70285 22807 ft 414 kts 163°
2026-05-05 19:32 50.24881 8.71116 22805 ft 414 kts 163°
2026-05-05 19:33 50.22110 8.72385 22807 ft 414 kts 163°
2026-05-05 19:33 50.19350 8.73665 22806 ft 414 kts 163°
2026-05-05 19:33 50.15703 8.75423 22805 ft 414 kts 162°
2026-05-05 19:33 50.12950 8.76761 22804 ft 414 kts 162°
2026-05-05 19:34 50.11095 8.77661 22806 ft 414 kts 162°
2026-05-05 19:34 50.08343 8.78993 22805 ft 414 kts 162°
2026-05-05 19:34 50.05559 8.80336 22634 ft 427 kts 163°
2026-05-05 19:35 49.99850 8.83084 22105 ft 432 kts 163°
2026-05-05 19:35 49.96977 8.84463 21839 ft 431 kts 163°
2026-05-05 19:35 49.94112 8.85837 21576 ft 430 kts 163°
2026-05-05 19:35 49.91260 8.87203 21329 ft 428 kts 163°
2026-05-05 19:36 49.88410 8.88566 21080 ft 427 kts 163°
2026-05-05 19:36 49.85577 8.89919 20819 ft 425 kts 163°
2026-05-05 19:36 49.82749 8.91268 20564 ft 425 kts 163°
2026-05-05 19:36 49.79919 8.92616 20317 ft 424 kts 164°
2026-05-05 19:37 49.77106 8.93955 19901 ft 423 kts 164°
2026-05-05 19:37 49.74297 8.95290 19454 ft 421 kts 164°
2026-05-05 19:37 49.71503 8.96616 19024 ft 419 kts 164°
2026-05-05 19:37 49.68750 8.97921 18602 ft 417 kts 164°
2026-05-05 19:38 49.65986 8.99230 18178 ft 415 kts 164°
2026-05-05 19:38 49.63236 9.00532 17708 ft 413 kts 165°
2026-05-05 19:38 49.60495 9.01827 17219 ft 410 kts 164°
2026-05-05 19:38 49.57832 9.03375 16742 ft 408 kts 158°
2026-05-05 19:39 49.55251 9.05154 16266 ft 405 kts 157°
2026-05-05 19:39 49.52702 9.07026 15816 ft 403 kts 156°
2026-05-05 19:39 49.50197 9.08940 15369 ft 401 kts 155°
2026-05-05 19:39 49.47713 9.10873 15009 ft 399 kts 155°
2026-05-05 19:40 49.45236 9.12810 14643 ft 397 kts 155°
2026-05-05 19:40 49.42776 9.14732 14150 ft 395 kts 155°
2026-05-05 19:40 49.40327 9.16638 13642 ft 393 kts 155°
2026-05-05 19:40 49.37920 9.18502 13094 ft 391 kts 156°
2026-05-05 19:41 49.35499 9.20371 12539 ft 388 kts 156°
2026-05-05 19:41 49.33087 9.22227 12000 ft 385 kts 156°
2026-05-05 19:41 49.30702 9.24060 11464 ft 383 kts 156°
2026-05-05 19:41 49.28330 9.25881 10944 ft 380 kts 156°
2026-05-05 19:42 49.25982 9.27681 10429 ft 374 kts 156°
2026-05-05 19:42 49.23674 9.29452 9924 ft 366 kts 157°
2026-05-05 19:42 49.21418 9.31181 9386 ft 358 kts 157°
2026-05-05 19:42 49.19217 9.32865 8843 ft 350 kts 157°
2026-05-05 19:43 49.17065 9.34511 8277 ft 338 kts 157°
2026-05-05 19:43 49.15003 9.36088 7733 ft 324 kts 157°
2026-05-05 19:43 49.13022 9.37601 7232 ft 312 kts 158°
2026-05-05 19:43 49.11137 9.39040 7018 ft 293 kts 158°
2026-05-05 19:44 49.09387 9.40378 6988 ft 278 kts 159°
2026-05-05 19:44 49.07667 9.41684 6992 ft 275 kts 159°
2026-05-05 19:44 49.05946 9.42978 6995 ft 277 kts 159°
2026-05-05 19:44 49.04209 9.44283 6985 ft 278 kts 158°
2026-05-05 19:45 49.02473 9.45589 6759 ft 278 kts 158°
2026-05-05 19:45 49.00750 9.46890 6501 ft 276 kts 158°
2026-05-05 19:45 48.99041 9.48185 6268 ft 273 kts 158°
2026-05-05 19:45 48.97335 9.49478 6071 ft 274 kts 158°
2026-05-05 19:46 48.95618 9.50779 5947 ft 274 kts 158°
2026-05-05 19:46 48.93930 9.52057 5821 ft 274 kts 158°
2026-05-05 19:46 48.92222 9.53346 5677 ft 273 kts 158°
2026-05-05 19:46 48.90519 9.54631 5324 ft 272 kts 158°
2026-05-05 19:47 48.88824 9.55909 4942 ft 271 kts 158°
2026-05-05 19:47 48.87141 9.57176 4776 ft 269 kts 158°
2026-05-05 19:47 48.85463 9.58439 4652 ft 270 kts 158°
2026-05-05 19:47 48.83781 9.59703 4529 ft 270 kts 158°
2026-05-05 19:48 48.82101 9.60963 4387 ft 269 kts 159°
2026-05-05 19:48 48.80346 9.61830 4268 ft 263 kts 175°
2026-05-05 19:48 48.78552 9.61763 4137 ft 255 kts 197°
2026-05-05 19:48 48.76986 9.60662 4013 ft 247 kts 221°
2026-05-05 19:49 48.75955 9.58679 3998 ft 229 kts 246°
2026-05-05 19:49 48.75465 9.56531 3984 ft 206 kts 254°
2026-05-05 19:49 48.75099 9.54529 4023 ft 185 kts 253°
2026-05-05 19:49 48.74780 9.52814 3991 ft 157 kts 253°
2026-05-05 19:50 48.74497 9.51329 4015 ft 140 kts 253°
2026-05-05 19:50 48.74227 9.49918 4002 ft 139 kts 253°
2026-05-05 19:50 48.73958 9.48508 4001 ft 139 kts 253°
2026-05-05 19:50 48.73691 9.47097 4008 ft 139 kts 253°
2026-05-05 19:51 48.73426 9.45687 4000 ft 139 kts 253°
2026-05-05 19:51 48.73161 9.44272 3904 ft 140 kts 253°
2026-05-05 19:51 48.72895 9.42859 3707 ft 139 kts 253°
2026-05-05 19:51 48.72628 9.41451 3509 ft 139 kts 253°
2026-05-05 19:52 48.72367 9.40066 3321 ft 138 kts 253°
2026-05-05 19:52 48.72103 9.38668 3135 ft 138 kts 253°
2026-05-05 19:52 48.71839 9.37275 2943 ft 137 kts 253°
2026-05-05 19:52 48.71577 9.35886 2766 ft 137 kts 253°
2026-05-05 19:53 48.71316 9.34503 2578 ft 136 kts 253°
2026-05-05 19:53 48.71054 9.33119 2399 ft 136 kts 253°
2026-05-05 19:53 48.70794 9.31743 2216 ft 136 kts 253°
2026-05-05 19:53 48.70534 9.30368 2015 ft 136 kts 253°
2026-05-05 19:54 48.70275 9.28993 1832 ft 135 kts 252°
2026-05-05 19:54 48.70009 9.27635 1698 ft 134 kts 252°
2026-05-05 19:54 48.69758 9.26286 1514 ft 133 kts 252°
2026-05-05 19:54 48.69501 9.24933 1381 ft 134 kts 253°
2026-05-05 19:55 48.69253 9.23601 1290 ft 125 kts 253°
2026-05-05 19:55 48.69061 9.22580 1289 ft 75 kts 253°
2026-05-05 19:55 48.68951 9.21994 1288 ft 39 kts 260°
2026-05-05 19:55 48.68958 9.21659 1288 ft 27 kts 285°
2026-05-05 19:56 48.68988 9.21476 1288 ft 0 kts 284°
2026-05-05 19:57 48.68991 9.21461 1271 ft 6 kts 284°
2026-05-05 19:57 48.69006 9.21353 1288 ft 15 kts 269°
2026-05-05 19:58 48.68969 9.21170 1288 ft 21 kts 253°
2026-05-05 19:58 48.68928 9.20951 1288 ft 22 kts 255°
2026-05-05 19:58 48.68887 9.20729 1288 ft 22 kts 254°
2026-05-05 19:58 48.68844 9.20506 1288 ft 22 kts 253°
2026-05-05 19:59 48.68800 9.20284 1288 ft 22 kts 255°
2026-05-05 19:59 48.68759 9.20056 1288 ft 22 kts 262°
2026-05-05 19:59 48.68756 9.19844 1288 ft 20 kts 253°
2026-05-05 19:59 48.68715 9.19637 1288 ft 21 kts 254°
2026-05-05 20:00 48.68676 9.19426 1288 ft 21 kts 254°
2026-05-05 20:00 48.68646 9.19216 1288 ft 19 kts 281°
2026-05-05 20:00 48.68746 9.19149 1288 ft 16 kts 25°
2026-05-05 20:00 48.68788 9.19295 1288 ft 14 kts 70°
2026-05-05 20:01 48.68849 9.19298 1288 ft 9 kts 343°
2026-05-05 20:01 48.68868 9.19290 1288 ft 0 kts 345°